Location: D�rnast
(49.6426°N, 11.9755°E)
Time: 20:51:53
(UTC+00:00)

USA 229 DEB - Pass Details

Date: 24 January 2021
Orbit: 965 x 1247 km, 63.4° (Epoch: 26 February)

Event Time Altitude Azimuth Distance (km) Brightness Sun altitude
Rises 18:31:52 0° 316° (NW) 3,950 7.3 -25.2°
Reaches altitude 10° 18:34:31 10° 313° (NW) 3,028 6.6 -25.6°
Maximum altitude 18:41:38 61° 236° (SW) 1,338 4.3 -26.8°
Enters shadow 18:47:27 18° 162° (SSE) 2,611 5.5 -27.7°
